Theta_e
323 317 318 315 303 302 299 298 306 305 305 310 312 312 311 313 310 307 325 335 339 340 342 346 347 349 347 343 342 340 337 334 332 330 328 327 327 327 327 327 327 328 329 332 335 337 339 341 340
317 315 315 310 299 295 297 302 301 307 310 313 313 312 311 310 317 322 326 334 339 340 342 343 342 345 343 341 338 334 331 329 327 325 324 324 324 324 325 325 326 326 327 328 329 330 332 335 337
318 315 307 303 298 295 297 301 305 307 310 312 311 314 312 311 318 322 332 336 340 340 341 339 341 342 340 336 333 330 328 324 322 321 322 322 322 322 322 322 323 324 325 326 327 327 328 328 331
312 310 306 298 296 300 300 303 305 307 311 312 313 309 315 320 320 323 333 339 339 339 338 337 340 339 336 333 330 326 323 320 319 319 320 320 320 320 321 322 323 324 324 325 325 325 326 326 326
312 307 298 296 297 300 303 304 305 306 310 311 312 308 311 318 322 326 333 337 338 338 336 337 337 336 333 330 327 323 319 317 317 317 317 318 318 318 319 320 321 321 321 323 323 324 324 324 324
303 304 294 293 296 299 302 304 304 305 309 310 309 309 312 319 321 326 333 336 338 337 337 336 331 332 331 327 323 319 316 315 315 316 316 316 316 316 317 318 318 318 319 320 321 321 321 321 322
303 298 295 296 296 297 301 304 301 304 306 307 311 307 312 315 322 327 333 336 336 337 335 334 331 327 325 324 321 317 315 314 314 314 315 314 314 315 315 316 316 317 319 319 318 318 318 319 319
306 302 296 296 294 297 304 304 305 305 305 308 311 305 307 315 323 327 332 333 333 333 332 330 329 326 323 318 318 317 315 313 312 311 311 313 314 314 314 315 315 316 317 318 317 317 318 317 317
309 297 295 296 297 299 305 303 306 308 307 308 310 310 312 317 322 324 326 327 328 327 327 327 325 323 320 319 313 313 314 310 309 311 312 313 316 316 317 315 314 315 316 316 317 317 317 316 316
301 297 297 301 302 302 304 304 304 303 304 305 308 312 313 315 319 320 321 321 323 323 323 324 322 319 318 314 314 315 313 314 313 315 316 316 316 316 314 313 314 315 315 316 317 316 316 316 316
301 298 301 301 304 304 303 303 306 304 303 308 306 310 312 312 314 316 319 321 322 323 323 322 320 318 316 314 315 314 314 314 315 316 317 317 316 317 315 315 315 316 314 315 316 316 317 318 318
298 301 301 302 302 302 301 304 303 304 306 309 309 310 310 311 312 314 316 318 320 321 322 321 319 316 316 315 313 314 313 314 315 315 316 316 316 315 314 313 314 315 315 315 316 318 318 318 318
299 301 302 303 302 302 302 300 302 304 308 310 309 308 308 310 311 314 315 317 319 319 320 320 318 316 315 314 313 314 314 314 315 315 316 316 315 314 314 314 314 314 314 315 316 317 319 320 320
302 302 302 302 302 302 300 302 302 306 308 308 307 308 310 311 311 312 314 315 317 318 318 319 317 316 314 313 313 313 314 314 315 316 316 315 315 314 314 314 314 313 315 315 318 318 319 318 319
302 298 302 302 302 301 302 300 300 308 308 307 308 309 310 311 312 311 314 315 316 317 318 317 316 315 313 312 312 313 315 314 315 315 315 315 315 314 313 313 313 313 315 317 319 319 318 316 316
298 299 295 300 301 302 301 298 305 307 307 308 310 311 311 312 313 314 314 314 316 317 317 317 314 313 312 311 312 314 314 315 315 315 315 315 315 314 313 313 313 314 316 317 318 317 314 315 315
298 293 294 297 302 301 299 300 304 306 307 307 309 310 310 310 310 309 310 312 313 316 316 315 312 311 311 312 313 313 314 314 315 315 315 314 313 313 313 313 313 317 317 318 318 316 315 314 314
292 292 295 296 299 300 300 299 304 307 307 306 306 306 306 306 305 307 308 309 311 314 315 314 311 311 311 312 313 314 314 315 316 315 313 313 312 312 313 314 315 317 317 315 316 314 315 316 313
295 295 294 297 299 298 299 300 301 305 303 303 303 303 304 304 307 306 307 309 311 313 313 311 310 310 311 311 312 312 312 314 314 312 311 311 311 312 313 315 316 317 316 315 316 315 314 314 317
295 294 294 297 298 296 298 298 302 301 299 299 300 301 302 302 304 304 306 307 309 310 310 310 310 310 311 312 312 313 313 314 313 312 311 311 312 312 312 315 315 315 315 316 316 315 315 317 314
293 293 294 292 295 297 296 299 297 299 299 298 299 300 301 300 300 302 303 306 308 308 309 309 309 310 310 311 312 313 314 314 312 311 311 311 311 312 314 316 318 317 317 316 316 314 315 313 314
289 296 295 293 292 291 296 295 295 299 297 297 297 297 298 299 300 300 302 304 306 307 309 309 309 310 310 311 311 311 311 310 310 311 311 311 311 312 314 316 315 317 317 316 316 315 315 316 312
292 296 295 295 293 294 294 293 298 296 296 293 295 295 296 298 299 299 301 303 306 308 308 309 309 309 310 311 311 312 311 311 311 311 310 311 312 313 314 316 315 315 317 316 316 317 316 315 312
297 295 295 295 294 288 294 292 297 291 288 291 293 294 294 296 298 300 303 304 305 307 308 308 308 308 310 310 311 311 310 310 309 310 310 311 312 313 314 316 316 316 316 316 316 317 316 316 314
295 292 287 286 286 286 288 288 290 289 290 290 290 292 293 294 295 297 299 301 303 304 306 306 306 306 307 308 309 309 309 309 308 310 311 311 312 313 314 315 316 317 316 316 316 317 317 318 314
292 293 289 282 283 286 287 286 289 289 291 292 292 291 292 292 293 293 294 296 298 300 302 304 304 304 306 306 307 309 309 309 309 310 310 311 312 313 315 315 315 316 315 315 315 315 317 318 318
292 288 293 285 283 284 288 288 288 290 289 289 289 290 289 289 290 291 292 293 294 295 296 297 299 301 303 304 306 307 308 308 308 309 309 310 313 314 314 315 317 316 316 315 315 315 314 316 316
293 295 287 289 281 279 285 286 288 286 287 287 287 287 288 289 290 290 290 290 292 293 294 295 295 296 298 299 302 305 307 308 309 309 308 309 311 311 312 314 316 314 314 315 314 314 314 314 314
290 289 289 290 287 281 280 283 287 287 286 286 286 287 287 288 288 289 289 290 290 291 291 292 292 293 294 297 298 301 304 306 307 307 308 309 310 309 310 312 313 313 313 314 313 313 313 314 313
292 290 291 284 283 285 283 283 288 287 286 287 286 286 287 288 288 288 289 289 288 288 289 289 290 290 291 293 295 297 299 302 303 305 306 308 308 310 310 310 311 312 313 313 312 311 313 313 312
Wind_Speed
7 6 5 5 5 5 9 3 2 4 3 2 2 4 7 7 7 4 3 6 6 12 14 13 11 10 13 12 11 8 7 6 5 5 6 6 7 7 7 8 9 10 11 12 12 13 14 13 11
4 3 4 2 7 7 6 4 5 4 3 3 3 2 3 5 4 7 7 5 10 11 12 11 12 14 12 11 11 7 6 6 6 6 5 6 6 7 7 8 9 10 11 12 13 13 13 14 11
5 6 5 4 7 8 1 4 3 3 2 4 2 3 4 4 6 4 7 10 13 11 10 10 11 12 12 9 8 6 6 6 5 5 6 6 6 7 7 8 9 10 11 12 12 13 13 13 13
5 5 4 7 9 7 3 5 3 4 3 3 4 3 3 6 3 6 9 11 12 13 10 9 12 11 10 8 7 7 6 5 5 5 5 4 6 7 8 9 10 11 11 12 13 13 13 13 12
5 4 7 7 9 2 4 3 4 2 2 5 5 3 3 4 5 6 10 9 12 12 9 10 11 9 9 8 7 7 6 5 4 4 4 5 6 7 8 9 10 10 11 12 13 13 13 14 14
5 3 6 10 9 3 3 2 3 7 4 5 4 3 5 5 5 6 9 9 10 12 11 11 9 9 8 8 7 6 5 4 3 4 5 5 5 7 7 7 8 10 11 12 13 13 14 14 16
10 6 8 7 6 4 3 2 4 5 4 4 2 3 5 6 5 7 9 10 10 10 9 10 10 9 9 8 7 6 4 3 3 4 5 6 7 6 7 6 6 9 12 13 13 13 13 15 15
6 4 8 7 5 5 4 3 1 5 3 1 3 1 5 6 6 8 8 9 9 9 9 9 9 9 9 8 6 5 3 3 2 3 4 6 8 7 5 5 2 10 11 12 13 14 16 14 15
3 6 9 11 9 2 4 3 3 3 6 3 3 1 5 9 7 8 9 9 9 8 9 9 8 7 6 6 6 5 3 2 3 3 4 6 5 5 6 7 5 9 10 12 14 14 14 16 16
8 7 10 2 5 3 2 3 1 3 5 6 7 6 5 8 9 10 11 11 12 12 11 9 9 8 6 4 5 4 3 3 3 4 5 5 6 5 4 6 6 9 10 12 12 11 12 14 8
5 6 5 3 3 3 5 6 2 5 8 10 7 5 9 7 9 10 11 10 12 11 10 10 9 8 7 4 3 2 2 2 2 4 4 4 4 4 4 5 5 6 3 5 7 8 6 9 7
5 11 7 2 2 3 5 6 7 8 14 9 7 8 5 9 10 10 10 10 9 11 12 11 10 8 7 4 4 2 2 2 3 3 4 4 3 4 4 3 5 5 4 6 6 4 7 8 7
14 8 5 9 4 6 7 11 13 15 15 13 10 8 10 11 9 9 8 8 8 10 11 11 10 9 7 5 3 2 2 3 5 4 3 4 4 4 5 4 4 5 5 5 5 4 5 6 7
2 10 10 5 7 6 6 12 2 10 3 4 2 7 7 7 7 7 7 9 10 10 11 12 12 9 7 5 3 2 1 4 4 4 4 4 4 4 5 5 5 4 4 6 6 4 6 6 6
4 8 9 10 5 3 3 10 13 16 4 6 4 5 4 7 5 6 7 8 10 10 11 11 11 10 8 5 3 1 1 2 4 3 4 5 5 5 5 4 4 4 5 6 5 5 6 5 5
5 6 8 7 3 2 4 7 8 2 1 5 7 5 4 5 5 6 7 6 6 9 11 11 9 10 8 5 3 1 2 3 3 4 4 4 5 5 4 3 3 5 6 3 3 5 3 3 3
6 6 9 6 3 2 8 4 5 2 9 11 10 8 7 7 9 12 12 10 6 7 10 11 10 11 9 6 3 2 2 2 2 3 4 4 4 4 3 2 3 4 3 3 4 4 4 3 5
6 5 5 5 4 3 6 12 12 10 11 8 8 7 8 10 11 11 11 8 3 6 9 11 9 10 8 5 3 2 1 1 2 3 3 4 3 3 2 2 3 3 2 2 3 4 4 4 4
2 4 6 2 3 4 7 10 12 10 7 9 10 11 12 13 13 13 11 8 5 7 10 11 11 10 6 4 2 1 1 1 2 3 3 3 2 2 3 3 3 2 2 2 3 3 2 2 5
5 3 3 1 0 3 8 12 3 8 10 13 14 14 16 15 15 14 12 9 8 8 9 9 10 9 5 4 3 2 1 2 3 2 2 2 1 2 3 4 3 2 1 2 4 4 2 1 6
9 9 3 4 4 6 9 8 10 9 12 14 15 15 16 17 15 14 12 11 10 10 10 9 8 7 5 4 3 2 1 1 1 1 1 1 0 1 3 4 2 2 2 2 2 2 5 3 1
11 9 11 8 3 5 2 2 2 7 8 15 16 16 15 17 15 13 12 12 11 11 10 10 8 7 5 4 3 4 3 4 3 2 2 0 1 1 3 2 2 2 2 2 1 2 4 5 5
2 4 9 8 9 6 6 4 3 3 2 12 15 15 16 16 15 13 12 12 12 11 9 9 9 8 7 5 5 4 4 3 3 2 2 1 2 1 1 1 1 3 1 2 3 1 4 3 3
10 8 6 3 3 5 4 4 5 3 5 9 12 14 15 15 15 14 12 12 12 11 10 9 9 9 7 7 7 7 6 6 3 2 2 1 1 1 1 1 3 4 2 2 2 2 5 1 2
7 10 3 4 5 4 2 4 6 4 7 8 11 13 14 14 14 15 14 13 13 13 12 10 10 10 9 9 8 7 7 6 4 5 4 4 2 2 2 2 2 3 3 3 2 3 3 3 3
13 9 4 5 5 4 2 6 5 7 6 7 9 11 12 14 13 13 14 13 13 13 13 12 11 10 10 9 8 7 6 4 4 4 4 4 4 4 4 3 3 3 5 4 3 4 3 2 2
7 7 3 4 2 2 6 5 6 7 8 9 11 12 13 13 13 14 14 14 13 13 14 13 12 11 11 10 8 8 7 6 5 6 4 5 5 5 8 5 5 4 4 5 5 4 5 4 3
3 3 4 2 4 5 4 3 3 8 6 9 11 11 11 12 13 13 13 14 12 13 12 13 13 12 12 12 10 8 8 7 6 6 6 4 5 5 5 7 6 4 4 5 5 3 5 5 4
5 3 3 3 2 2 2 4 5 8 6 8 9 10 11 12 12 12 12 13 13 13 14 14 14 14 14 13 11 10 9 8 8 7 7 6 5 4 5 5 5 4 5 4 6 5 5 4 5
4 7 11 5 5 2 2 3 4 8 7 7 8 8 10 11 12 12 13 13 13 14 14 15 15 15 15 14 13 14 14 13 11 10 10 9 8 7 3 5 6 5 4 4 4 5 6 6 6
Wind_Direction
259 251 268 248 231 239 246 228 24 174 206 163 284 271 3 354 355 15 122 105 140 142 138 161 142 139 124 113 101 91 87 94 86 73 57 44 38 27 18 10 359 348 340 333 329 323 319 322 341
250 255 244 249 252 219 206 180 193 158 64 193 165 212 247 77 69 97 142 130 151 139 136 138 109 114 112 104 94 106 107 101 86 70 54 38 28 17 9 1 351 344 336 331 327 322 320 319 323
261 247 244 227 234 246 321 181 139 121 183 185 199 292 7 56 74 63 79 149 147 137 132 103 115 103 90 105 117 122 109 96 79 61 45 29 22 15 5 355 345 339 334 330 324 319 316 314 316
213 201 229 245 222 242 310 124 84 186 183 204 292 201 132 42 44 44 135 151 147 133 147 113 92 106 125 130 129 119 110 93 75 58 43 25 17 3 354 346 343 341 333 326 323 320 316 313 309
225 255 232 233 244 216 262 298 307 216 179 188 205 113 91 97 95 121 136 162 153 134 142 133 114 135 142 140 135 125 114 98 71 43 26 8 0 351 341 343 345 340 333 328 324 322 320 314 307
208 267 229 228 203 221 240 268 248 260 218 142 216 266 83 102 152 135 143 166 149 147 155 140 127 131 135 137 128 123 117 95 53 25 3 349 338 331 334 338 336 338 337 336 333 324 321 318 315
258 221 233 286 241 237 226 70 221 275 237 235 23 294 79 144 107 141 153 158 157 147 158 154 159 138 114 115 128 138 136 106 40 14 2 344 326 323 328 331 324 334 336 332 328 322 312 306 300
278 259 218 219 273 246 129 182 241 241 233 23 317 192 129 106 134 146 159 157 165 157 168 166 160 164 164 155 129 126 112 92 41 6 348 322 292 248 252 270 358 333 322 321 315 310 307 304 298
254 239 224 217 212 204 126 218 141 360 269 193 206 254 108 124 150 159 169 175 174 175 180 173 169 171 167 166 136 144 151 207 245 236 210 274 299 325 334 66 349 315 310 306 302 301 301 300 291
224 234 251 306 264 279 152 263 189 234 225 241 230 200 164 158 182 189 190 193 192 186 189 181 178 173 167 185 165 206 182 255 302 317 324 319 328 352 301 277 252 267 268 280 277 288 287 268 287
191 240 264 262 285 313 306 264 243 269 258 242 239 264 174 199 207 215 217 214 200 195 186 192 185 176 177 180 185 209 233 279 300 317 331 324 328 342 336 338 338 329 270 326 336 328 331 331 306
249 231 257 339 351 319 279 329 263 253 259 306 291 302 227 220 225 225 229 225 205 199 192 186 185 181 181 178 200 202 249 312 306 346 327 319 325 344 345 352 299 319 337 336 336 334 319 292 284
229 236 246 256 272 277 300 270 281 275 266 274 261 244 257 260 250 236 234 237 211 207 197 184 186 181 177 188 184 221 288 310 346 312 328 319 330 334 329 339 319 331 336 331 339 327 306 356 356
343 257 255 233 239 230 265 278 32 260 189 267 267 260 255 259 259 248 223 229 212 207 200 186 182 182 170 184 198 198 342 339 317 324 343 323 324 326 326 330 331 330 341 346 327 328 14 8 347
275 268 222 221 230 240 280 261 226 255 225 280 288 254 264 253 239 240 234 216 220 207 198 185 175 175 162 170 173 239 21 323 327 331 324 331 321 325 326 325 328 342 342 344 349 12 21 357 345
228 239 240 94 172 152 240 261 124 75 176 345 317 294 243 245 294 282 276 258 228 193 194 171 162 161 160 156 164 101 13 341 343 330 323 340 330 324 321 328 352 356 359 344 20 27 6 299 17
200 268 213 148 164 220 224 279 78 81 320 323 324 331 344 350 17 14 352 318 256 194 177 160 154 155 149 143 137 111 69 16 3 326 331 356 335 337 329 10 18 7 348 9 46 32 344 331 27
208 229 243 235 93 225 260 268 294 318 317 328 13 21 27 33 25 11 0 346 242 168 161 146 150 140 140 134 130 122 100 43 10 1 360 329 353 347 344 8 26 355 356 44 55 46 330 11 68
102 232 255 47 55 309 271 286 299 316 41 40 41 30 29 22 18 24 26 24 78 117 136 141 138 133 137 144 142 145 359 34 4 24 356 7 3 20 360 29 31 33 348 35 59 74 349 319 295
213 157 190 161 146 299 300 292 7 100 78 53 35 32 21 16 18 26 35 43 71 101 114 123 123 132 111 100 63 17 30 44 42 26 358 13 12 3 3 14 47 71 36 38 100 30 333 311 18
232 235 236 295 326 242 285 250 155 135 76 54 42 31 22 17 13 23 39 56 75 86 98 101 103 94 80 91 111 96 133 192 182 103 131 339 338 35 5 24 9 80 9 15 105 12 344 339 52
220 215 235 239 261 259 312 268 210 158 106 44 31 25 17 15 20 24 38 54 64 72 81 86 82 76 61 32 19 21 2 350 21 19 3 291 266 137 53 29 325 328 28 4 13 317 332 328 12
188 153 197 212 224 289 202 251 128 158 173 21 20 19 17 17 22 33 42 59 59 58 63 68 70 58 44 23 20 1 13 13 24 343 312 287 232 274 30 43 272 341 298 36 300 255 305 31 7
137 126 121 170 221 243 184 246 144 43 357 355 15 19 20 19 25 41 54 57 57 53 51 48 50 44 35 25 17 13 5 1 352 346 318 287 266 246 276 267 186 264 266 263 269 314 294 316 332
192 178 137 194 201 233 128 215 57 81 37 21 12 21 23 28 30 31 39 43 43 42 37 40 35 36 21 22 14 9 360 356 342 340 335 329 295 258 269 260 297 273 254 261 277 267 265 289 309
199 219 224 211 193 151 141 220 105 88 66 55 48 38 33 33 33 36 35 35 35 32 29 30 24 28 22 18 8 3 358 347 337 335 328 322 317 315 305 279 267 253 273 251 243 239 262 324 304
168 223 20 110 100 266 174 112 133 132 77 56 48 43 37 34 32 31 33 32 28 29 26 22 22 16 18 9 6 0 354 347 335 331 324 318 337 341 329 307 306 287 284 252 251 248 257 251 257
285 141 172 233 192 215 171 232 80 195 57 53 44 39 36 37 39 35 32 29 30 29 23 24 20 14 11 6 357 353 346 344 333 325 316 304 317 322 315 311 309 287 265 272 261 263 265 258 255
163 189 228 259 297 253 195 124 14 94 76 67 50 41 36 36 33 36 38 35 30 31 28 25 20 15 11 6 359 352 351 350 341 329 319 315 302 293 302 308 300 282 290 251 261 254 261 246 260
308 241 204 223 186 255 359 118 90 98 87 83 75 54 42 38 40 35 30 32 36 31 27 27 22 18 14 10 10 12 6 359 358 349 340 328 319 312 279 299 304 290 278 272 258 271 276 258 245